| time (UTC) | temp C | wind direction | speed KPH | gust KPH | rain 1hr cm | rain 24hr cm | rain mn cm | humidity % | barometer mb |
| 20260508060038 | 15 | 154 | 1.6 | 3.2 | 0.00 | 0.00 | 0.00 | 84 | 1018.0 |
| 20260508060017 | 15 | 154 | 0.0 | 3.2 | 0.00 | 0.00 | 0.00 | 84 | 1017.9 |
| 20260508055518 | 15 | 211 | 0.0 | 3.2 | 0.00 | 0.00 | 0.00 | 84 | 1017.9 |
| 20260508055018 | 15 | 252 | 1.6 | 3.2 | 0.00 | 0.00 | 0.00 | 84 | 1017.7 |
| 20260508054527 | 15 | 135 | 1.6 | 6.4 | 0.00 | 0.00 | 0.00 | 83 | 1017.5 |
| 20260508054520 | 15 | 135 | 0.0 | 6.4 | 0.00 | 0.00 | 0.00 | 83 | 1017.4 |
| 20260508054018 | 15 | 144 | 1.6 | 6.4 | 0.00 | 0.00 | 0.00 | 84 | 1017.5 |
| 20260508053518 | 14 | 94 | 1.6 | 3.2 | 0.00 | 0.00 | 0.00 | 85 | 1017.6 |
| 20260508053027 | 14 | 136 | 1.6 | 4.8 | 0.00 | 0.00 | 0.00 | 85 | 1017.6 |
| 20260508053018 | 14 | 136 | 0.0 | 4.8 | 0.00 | 0.00 | 0.00 | 85 | 1017.5 |
| 20260508052518 | 13 | 107 | 0.0 | 4.8 | 0.00 | 0.00 | 0.00 | 87 | 1017.6 |
| 20260508052018 | 13 | 56 | 1.6 | 3.2 | 0.00 | 0.00 | 0.00 | 88 | 1017.6 |
| 20260508051527 | 13 | 57 | 1.6 | 6.4 | 0.00 | 0.00 | 0.00 | 88 | 1017.6 |
| 20260508051518 | 13 | 57 | 0.0 | 6.4 | 0.00 | 0.00 | 0.00 | 88 | 1017.5 |
| 20260508051019 | 13 | 53 | 3.2 | 6.4 | 0.00 | 0.00 | 0.00 | 88 | 1017.6 |
| 20260508050518 | 14 | 108 | 0.0 | 1.6 | 0.00 | 0.00 | 0.00 | 90 | 1017.6 |
| 20260508050038 | 14 | 224 | 0.0 | 1.6 | 0.00 | 0.00 | 0.00 | 90 | 1017.6 |
| 20260508050018 | 14 | 224 | 0.0 | 1.6 | 0.00 | 0.00 | 0.00 | 90 | 1017.5 |
| 20260508045518 | 14 | 179 | 0.0 | 1.6 | 0.00 | 0.00 | 0.00 | 91 | 1017.6 |
| 20260508045018 | 13 | 142 | 0.0 | 0.0 | 0.00 | 0.00 | 0.00 | 91 | 1017.4 |
| 20260508044527 | 13 | 134 | 0.0 | 3.2 | 0.00 | 0.00 | 0.00 | 91 | 1017.4 |
| 20260508044518 | 13 | 134 | 0.0 | 3.2 | 0.00 | 0.00 | 0.00 | 91 | 1017.2 |
| 20260508044018 | 13 | 162 | 0.0 | 3.2 | 0.00 | 0.00 | 0.00 | 91 | 1017.4 |
| 20260508043518 | 13 | 148 | 1.6 | 3.2 | 0.00 | 0.00 | 0.00 | 91 | 1017.4 |
| 20260508043039 | 13 | 191 | 1.6 | 4.8 | 0.00 | 0.00 | 0.00 | 91 | 1017.3 |
| 20260508043018 | 13 | 191 | 0.0 | 4.8 | 0.00 | 0.00 | 0.00 | 91 | 1017.2 |
| 20260508042520 | 13 | 199 | 1.6 | 4.8 | 0.00 | 0.00 | 0.00 | 91 | 1017.2 |
| 20260508042018 | 13 | 144 | 0.0 | 3.2 | 0.00 | 0.00 | 0.00 | 91 | 1017.1 |
| 20260508041527 | 13 | 153 | 0.0 | 0.0 | 0.00 | 0.00 | 0.00 | 91 | 1017.2 |
| 20260508041518 | 13 | 153 | 0.0 | 0.0 | 0.00 | 0.00 | 0.00 | 91 | 1017.1 |
| 20260508041018 | 12 | 153 | 0.0 | 0.0 | 0.00 | 0.00 | 0.00 | 91 | 1017.2 |
| 20260508040518 | 12 | 153 | 0.0 | 0.0 | 0.00 | 0.00 | 0.00 | 91 | 1017.2 |
| 20260508040028 | 12 | 165 | 0.0 | 0.0 | 0.00 | 0.00 | 0.00 | 91 | 1017.1 |
| 20260508040018 | 12 | 165 | 0.0 | 0.0 | 0.00 | 0.00 | 0.00 | 91 | 1017.0 |
| 20260508035519 | 12 | 174 | 0.0 | 0.0 | 0.00 | 0.00 | 0.00 | 91 | 1017.1 |
| 20260508035018 | 12 | 174 | 0.0 | 0.0 | 0.00 | 0.00 | 0.00 | 91 | 1017.1 |
| 20260508034528 | 12 | 174 | 0.0 | 0.0 | 0.00 | 0.00 | 0.00 | 91 | 1017.3 |
| 20260508034519 | 12 | 174 | 0.0 | 0.0 | 0.00 | 0.00 | 0.00 | 91 | 1017.2 |
| 20260508034020 | 12 | 174 | 0.0 | 0.0 | 0.00 | 0.00 | 0.00 | 91 | 1017.2 |
| 20260508033518 | 12 | 175 | 0.0 | 0.0 | 0.00 | 0.00 | 0.00 | 91 | 1017.3 |
| 20260508033028 | 12 | 158 | 0.0 | 1.6 | 0.00 | 0.00 | 0.00 | 91 | 1017.3 |
| 20260508033019 | 12 | 158 | 0.0 | 1.6 | 0.00 | 0.00 | 0.00 | 91 | 1017.1 |
| 20260508032518 | 12 | 158 | 0.0 | 0.0 | 0.00 | 0.00 | 0.00 | 91 | 1017.3 |
| 20260508032019 | 12 | 160 | 0.0 | 1.6 | 0.00 | 0.00 | 0.00 | 91 | 1017.4 |
| 20260508031530 | 12 | 160 | 1.6 | 1.6 | 0.00 | 0.00 | 0.00 | 90 | 1017.3 |
| 20260508031519 | 12 | 160 | 0.0 | 1.6 | 0.00 | 0.00 | 0.00 | 90 | 1017.1 |
| 20260508030939 | 12 | 245 | 0.0 | 1.6 | 0.00 | 0.00 | 0.00 | 91 | 1017.1 |
| 20260508030440 | 12 | 217 | 0.0 | 1.6 | 0.00 | 0.00 | 0.00 | 91 | 1017.1 |
| 20260508030043 | 12 | 218 | 0.0 | 1.6 | 0.00 | 0.00 | 0.00 | 90 | 1017.0 |
| 20260508025949 | 12 | 217 | 0.0 | 1.6 | 0.00 | 0.00 | 0.00 | 90 | 1017.0 |
| 20260508025439 | 12 | 215 | 0.0 | 3.2 | 0.00 | 0.00 | 0.00 | 90 | 1017.0 |
| 20260508024941 | 12 | 204 | 0.0 | 3.2 | 0.00 | 0.00 | 0.00 | 90 | 1017.1 |
| 20260508024552 | 12 | 221 | 0.0 | 0.0 | 0.00 | 0.00 | 0.00 | 90 | 1017.0 |
| 20260508024450 | 12 | 221 | 0.0 | 0.0 | 0.00 | 0.00 | 0.00 | 90 | 1017.1 |
| 20260508023950 | 12 | 231 | 0.0 | 0.0 | 0.00 | 0.00 | 0.00 | 90 | 1017.0 |
| 20260508023439 | 12 | 224 | 0.0 | 3.2 | 0.00 | 0.00 | 0.00 | 90 | 1017.0 |
| 20260508023040 | 12 | 193 | 0.0 | 3.2 | 0.00 | 0.00 | 0.00 | 90 | 1016.8 |
| 20260508022949 | 12 | 214 | 0.0 | 3.2 | 0.00 | 0.00 | 0.00 | 90 | 1016.9 |
| 20260508022440 | 12 | 197 | 0.0 | 1.6 | 0.00 | 0.00 | 0.00 | 90 | 1016.9 |
| 20260508021940 | 12 | 165 | 0.0 | 1.6 | 0.00 | 0.00 | 0.00 | 90 | 1016.9 |
| 20260508021540 | 12 | 165 | 0.0 | 1.6 | 0.00 | 0.00 | 0.00 | 90 | 1016.6 |
| 20260508021450 | 12 | 123 | 0.0 | 1.6 | 0.00 | 0.00 | 0.00 | 90 | 1016.7 |
| 20260508020951 | 12 | 204 | 0.0 | 0.0 | 0.00 | 0.00 | 0.00 | 90 | 1016.7 |
| 20260508020440 | 12 | 203 | 0.0 | 1.6 | 0.00 | 0.00 | 0.00 | 90 | 1016.7 |
| 20260508020045 | 12 | 204 | 0.0 | 1.6 | 0.00 | 0.00 | 0.00 | 90 | 1016.7 |
| 20260508015949 | 12 | 192 | 0.0 | 1.6 | 0.00 | 0.00 | 0.00 | 90 | 1016.8 |
| 20260508015440 | 12 | 211 | 0.0 | 1.6 | 0.00 | 0.00 | 0.00 | 90 | 1016.7 |
| 20260508014941 | 12 | 212 | 0.0 | 4.8 | 0.00 | 0.00 | 0.00 | 90 | 1016.8 |
| 20260508014540 | 12 | 210 | 0.0 | 4.8 | 0.00 | 0.00 | 0.00 | 90 | 1016.8 |
| 20260508014449 | 12 | 210 | 0.0 | 4.8 | 0.00 | 0.00 | 0.00 | 90 | 1016.9 |
| 20260508013941 | 12 | 205 | 0.0 | 0.0 | 0.00 | 0.00 | 0.00 | 90 | 1016.9 |
| 20260508013440 | 12 | 205 | 0.0 | 0.0 | 0.00 | 0.00 | 0.00 | 90 | 1017.0 |
| 20260508013040 | 12 | 235 | 0.0 | 0.0 | 0.00 | 0.00 | 0.00 | 90 | 1017.0 |
| 20260508012949 | 12 | 256 | 0.0 | 0.0 | 0.00 | 0.00 | 0.00 | 90 | 1017.0 |
| 20260508012440 | 12 | 256 | 0.0 | 0.0 | 0.00 | 0.00 | 0.00 | 90 | 1017.1 |
| 20260508011940 | 12 | 258 | 0.0 | 0.0 | 0.00 | 0.00 | 0.00 | 90 | 1017.1 |
| 20260508011550 | 12 | 257 | 0.0 | 0.0 | 0.00 | 0.00 | 0.00 | 90 | 1017.1 |
| 20260508011449 | 12 | 257 | 0.0 | 0.0 | 0.00 | 0.00 | 0.00 | 90 | 1017.2 |
| 20260508010952 | 12 | 259 | 0.0 | 0.0 | 0.00 | 0.00 | 0.00 | 90 | 1017.3 |
| 20260508010440 | 12 | 258 | 0.0 | 0.0 | 0.00 | 0.00 | 0.00 | 89 | 1017.2 |
| 20260508010050 | 12 | 224 | 0.0 | 3.2 | 0.00 | 0.00 | 0.00 | 89 | 1017.3 |
| 20260508005949 | 12 | 224 | 0.0 | 3.2 | 0.00 | 0.00 | 0.00 | 89 | 1017.4 |
| 20260508005440 | 12 | 233 | 0.0 | 3.2 | 0.00 | 0.00 | 0.00 | 90 | 1017.4 |
| 20260508004951 | 12 | 139 | 0.0 | 1.6 | 0.00 | 0.00 | 0.00 | 89 | 1017.4 |
| 20260508004554 | 12 | 154 | 0.0 | 1.6 | 0.00 | 0.00 | 0.00 | 90 | 1017.3 |
| 20260508004449 | 12 | 179 | 0.0 | 1.6 | 0.00 | 0.00 | 0.00 | 90 | 1017.4 |
| 20260508003940 | 12 | 197 | 0.0 | 3.2 | 0.00 | 0.00 | 0.00 | 89 | 1017.4 |
| 20260508003440 | 12 | 203 | 0.0 | 3.2 | 0.00 | 0.00 | 0.00 | 89 | 1017.5 |
| 20260508003043 | 12 | 160 | 0.0 | 1.6 | 0.00 | 0.00 | 0.00 | 89 | 1017.4 |
| 20260508002949 | 12 | 160 | 0.0 | 1.6 | 0.00 | 0.00 | 0.00 | 89 | 1017.5 |
| 20260508002442 | 12 | 228 | 0.0 | 1.6 | 0.00 | 0.00 | 0.00 | 89 | 1017.4 |
| 20260508001940 | 13 | 141 | 0.0 | 1.6 | 0.00 | 0.00 | 0.00 | 89 | 1017.4 |
| 20260508001543 | 13 | 65 | 0.0 | 4.8 | 0.00 | 0.00 | 0.00 | 89 | 1017.4 |
| 20260508001449 | 13 | 65 | 0.0 | 4.8 | 0.00 | 0.00 | 0.00 | 89 | 1017.5 |
| 20260508000940 | 13 | 158 | 1.6 | 4.8 | 0.00 | 0.00 | 0.00 | 89 | 1017.5 |
| 20260508000451 | 13 | 184 | 0.0 | 1.6 | 0.00 | 0.00 | 0.00 | 89 | 1017.5 |
| 20260508000040 | 13 | 191 | 0.0 | 1.6 | 0.00 | 0.00 | 0.00 | 89 | 1017.5 |
| 20260507235951 | 13 | 191 | 0.0 | 1.6 | 0.00 | 0.00 | 0.00 | 89 | 1017.6 |
| 20260507235440 | 13 | 220 | 0.0 | 1.6 | 0.00 | 0.00 | 0.00 | 89 | 1017.7 |
| 20260507234941 | 13 | 191 | 0.0 | 1.6 | 0.00 | 0.00 | 0.00 | 89 | 1017.8 |
| 20260507234541 | 13 | 227 | 0.0 | 1.6 | 0.00 | 0.00 | 0.00 | 89 | 1017.7 |
| 20260507234451 | 13 | 215 | 0.0 | 1.6 | 0.00 | 0.00 | 0.00 | 89 | 1017.7 |
| 20260507233952 | 13 | 169 | 0.0 | 1.6 | 0.00 | 0.00 | 0.00 | 89 | 1017.9 |
| 20260507233440 | 13 | 191 | 0.0 | 1.6 | 0.00 | 0.00 | 0.00 | 89 | 1017.9 |
| 20260507233041 | 13 | 220 | 0.0 | 3.2 | 0.00 | 0.00 | 0.00 | 89 | 1017.8 |
| 20260507232950 | 13 | 220 | 0.0 | 3.2 | 0.00 | 0.00 | 0.00 | 89 | 1017.9 |
| 20260507232442 | 13 | 233 | 0.0 | 3.2 | 0.00 | 0.00 | 0.00 | 89 | 1018.0 |
| 20260507231953 | 13 | 196 | 0.0 | 3.2 | 0.00 | 0.00 | 0.00 | 89 | 1018.0 |
| 20260507231545 | 13 | 219 | 0.0 | 3.2 | 0.00 | 0.00 | 0.00 | 89 | 1017.9 |
| 20260507231450 | 13 | 155 | 0.0 | 3.2 | 0.00 | 0.00 | 0.00 | 89 | 1018.0 |
| 20260507230941 | 13 | 224 | 0.0 | 1.6 | 0.00 | 0.00 | 0.00 | 88 | 1018.0 |
| 20260507230441 | 13 | 137 | 0.0 | 1.6 | 0.00 | 0.00 | 0.00 | 88 | 1018.1 |
| 20260507230040 | 13 | 141 | 0.0 | 1.6 | 0.00 | 0.00 | 0.00 | 88 | 1018.1 |
| 20260507225950 | 13 | 230 | 0.0 | 1.6 | 0.00 | 0.00 | 0.00 | 88 | 1018.2 |
| 20260507225441 | 13 | 240 | 0.0 | 3.2 | 0.00 | 0.00 | 0.00 | 88 | 1018.2 |
| 20260507224941 | 13 | 240 | 0.0 | 3.2 | 0.00 | 0.00 | 0.00 | 88 | 1018.2 |
| 20260507224553 | 13 | 254 | 1.6 | 3.2 | 0.00 | 0.00 | 0.00 | 88 | 1018.2 |
| 20260507224450 | 13 | 269 | 1.6 | 3.2 | 0.00 | 0.00 | 0.00 | 88 | 1018.3 |
| 20260507223941 | 13 | 257 | 0.0 | 3.2 | 0.00 | 0.00 | 0.00 | 87 | 1018.4 |
| 20260507223441 | 13 | 236 | 0.0 | 1.6 | 0.00 | 0.00 | 0.00 | 88 | 1018.5 |
| 20260507223041 | 13 | 223 | 0.0 | 0.0 | 0.00 | 0.00 | 0.00 | 88 | 1018.4 |
| 20260507222950 | 13 | 223 | 0.0 | 0.0 | 0.00 | 0.00 | 0.00 | 88 | 1018.5 |
| 20260507222441 | 13 | 221 | 0.0 | 0.0 | 0.00 | 0.00 | 0.00 | 87 | 1018.6 |
| 20260507221941 | 13 | 215 | 0.0 | 0.0 | 0.00 | 0.00 | 0.00 | 87 | 1018.4 |
| 20260507221541 | 14 | 215 | 0.0 | 1.6 | 0.00 | 0.00 | 0.00 | 87 | 1018.4 |
| 20260507221451 | 14 | 216 | 0.0 | 1.6 | 0.00 | 0.00 | 0.00 | 87 | 1018.5 |
| 20260507220941 | 14 | 201 | 0.0 | 3.2 | 0.00 | 0.00 | 0.00 | 87 | 1018.5 |
| 20260507220452 | 14 | 222 | 0.0 | 3.2 | 0.00 | 0.00 | 0.00 | 87 | 1018.4 |
| 20260507220041 | 14 | 153 | 0.0 | 3.2 | 0.00 | 0.00 | 0.00 | 87 | 1018.4 |
| 20260507215950 | 14 | 153 | 1.6 | 3.2 | 0.00 | 0.00 | 0.00 | 87 | 1018.4 |
| 20260507215441 | 14 | 153 | 0.0 | 1.6 | 0.00 | 0.00 | 0.00 | 87 | 1018.5 |
| 20260507214952 | 14 | 161 | 0.0 | 3.2 | 0.00 | 0.00 | 0.00 | 87 | 1018.5 |
| 20260507214541 | 14 | 161 | 0.0 | 4.8 | 0.00 | 0.00 | 0.00 | 86 | 1018.3 |
| 20260507214451 | 14 | 172 | 1.6 | 4.8 | 0.00 | 0.00 | 0.00 | 86 | 1018.5 |
| 20260507213952 | 14 | 178 | 1.6 | 4.8 | 0.00 | 0.00 | 0.00 | 87 | 1018.4 |
| 20260507213452 | 14 | 216 | 0.0 | 3.2 | 0.00 | 0.00 | 0.00 | 87 | 1018.4 |
| 20260507213050 | 14 | 208 | 0.0 | 3.2 | 0.00 | 0.00 | 0.00 | 87 | 1018.4 |
| 20260507212950 | 14 | 228 | 1.6 | 3.2 | 0.00 | 0.00 | 0.00 | 87 | 1018.5 |
| 20260507212441 | 14 | 227 | 0.0 | 3.2 | 0.00 | 0.00 | 0.00 | 87 | 1018.4 |
| 20260507211941 | 13 | 149 | 0.0 | 4.8 | 0.00 | 0.00 | 0.00 | 87 | 1018.5 |
| 20260507211543 | 13 | 200 | 0.0 | 4.8 | 0.00 | 0.00 | 0.00 | 88 | 1018.4 |
| 20260507211451 | 13 | 199 | 1.6 | 4.8 | 0.00 | 0.00 | 0.00 | 88 | 1018.5 |
| 20260507210942 | 13 | 207 | 1.6 | 3.2 | 0.00 | 0.00 | 0.00 | 87 | 1018.6 |
| 20260507210441 | 13 | 155 | 0.0 | 4.8 | 0.00 | 0.00 | 0.00 | 87 | 1018.4 |
| 20260507210048 | 13 | 183 | 0.0 | 4.8 | 0.00 | 0.00 | 0.00 | 87 | 1018.3 |
| 20260507205952 | 13 | 169 | 1.6 | 4.8 | 0.00 | 0.00 | 0.00 | 87 | 1018.4 |
| 20260507205441 | 13 | 170 | 1.6 | 3.2 | 0.00 | 0.00 | 0.00 | 86 | 1018.3 |
| 20260507204953 | 13 | 214 | 1.6 | 3.2 | 0.00 | 0.00 | 0.00 | 86 | 1018.3 |
| 20260507204555 | 13 | 167 | 0.0 | 3.2 | 0.00 | 0.00 | 0.00 | 86 | 1018.2 |
| 20260507204450 | 13 | 211 | 0.0 | 3.2 | 0.00 | 0.00 | 0.00 | 85 | 1018.3 |
| 20260507203942 | 13 | 189 | 1.6 | 4.8 | 0.00 | 0.00 | 0.00 | 85 | 1018.3 |
| 20260507203442 | 13 | 214 | 1.6 | 4.8 | 0.00 | 0.00 | 0.00 | 85 | 1018.2 |
| 20260507203042 | 13 | 169 | 0.0 | 3.2 | 0.00 | 0.00 | 0.00 | 85 | 1018.2 |
| 20260507202951 | 13 | 169 | 0.0 | 1.6 | 0.00 | 0.00 | 0.00 | 85 | 1018.2 |
| 20260507202441 | 13 | 188 | 0.0 | 3.2 | 0.00 | 0.00 | 0.00 | 85 | 1018.2 |
| 20260507201942 | 13 | 221 | 0.0 | 3.2 | 0.00 | 0.00 | 0.00 | 85 | 1018.2 |
| 20260507201543 | 13 | 233 | 0.0 | 3.2 | 0.00 | 0.00 | 0.00 | 84 | 1018.1 |
| 20260507201451 | 13 | 141 | 1.6 | 3.2 | 0.00 | 0.00 | 0.00 | 84 | 1018.1 |
| 20260507200941 | 13 | 172 | 0.0 | 3.2 | 0.00 | 0.00 | 0.00 | 84 | 1018.2 |
| 20260507200453 | 13 | 187 | 1.6 | 6.4 | 0.00 | 0.00 | 0.00 | 84 | 1018.3 |
| 20260507200042 | 13 | 230 | 0.0 | 6.4 | 0.00 | 0.00 | 0.00 | 84 | 1018.2 |
| 20260507195951 | 13 | 221 | 1.6 | 6.4 | 0.00 | 0.00 | 0.00 | 84 | 1018.1 |
| 20260507195443 | 13 | 172 | 1.6 | 4.8 | 0.00 | 0.00 | 0.00 | 84 | 1018.2 |
| 20260507194942 | 13 | 181 | 1.6 | 4.8 | 0.00 | 0.00 | 0.00 | 84 | 1018.2 |
| 20260507194542 | 13 | 197 | 1.6 | 6.4 | 0.00 | 0.00 | 0.00 | 84 | 1018.2 |
| 20260507194452 | 13 | 157 | 3.2 | 6.4 | 0.00 | 0.00 | 0.00 | 84 | 1018.3 |
| 20260507193943 | 13 | 222 | 1.6 | 6.4 | 0.00 | 0.00 | 0.00 | 84 | 1018.2 |
| 20260507193442 | 13 | 194 | 1.6 | 4.8 | 0.00 | 0.00 | 0.00 | 83 | 1018.2 |
| 20260507193042 | 13 | 123 | 0.0 | 4.8 | 0.00 | 0.00 | 0.00 | 83 | 1018.1 |
| 20260507192951 | 14 | 166 | 0.0 | 4.8 | 0.00 | 0.00 | 0.00 | 83 | 1018.3 |
| 20260507192443 | 14 | 176 | 0.0 | 4.8 | 0.00 | 0.00 | 0.00 | 82 | 1018.1 |
| 20260507191943 | 14 | 186 | 0.0 | 3.2 | 0.00 | 0.00 | 0.00 | 81 | 1018.2 |
| 20260507191542 | 14 | 160 | 0.0 | 3.2 | 0.00 | 0.00 | 0.00 | 81 | 1018.1 |
| 20260507191454 | 14 | 162 | 1.6 | 1.6 | 0.00 | 0.00 | 0.00 | 82 | 1018.2 |
| 20260507190943 | 15 | 231 | 0.0 | 3.2 | 0.00 | 0.00 | 0.00 | 82 | 1018.2 |
| 20260507190443 | 15 | 121 | 0.0 | 4.8 | 0.00 | 0.00 | 0.00 | 81 | 1018.2 |
| 20260507190043 | 15 | 146 | 0.0 | 4.8 | 0.00 | 0.00 | 0.00 | 81 | 1018.2 |
| 20260507190005 | 15 | 141 | 0.0 | 4.8 | 0.00 | 0.00 | 0.00 | 81 | 1018.2 |
| 20260507185442 | 15 | 233 | 0.0 | 1.6 | 0.00 | 0.00 | 0.00 | 80 | 1018.2 |
| 20260507184943 | 15 | 232 | 0.0 | 1.6 | 0.00 | 0.00 | 0.00 | 80 | 1018.3 |
| 20260507184542 | 15 | 137 | 0.0 | 3.2 | 0.00 | 0.00 | 0.00 | 80 | 1018.1 |
| 20260507184504 | 15 | 156 | 0.0 | 3.2 | 0.00 | 0.00 | 0.00 | 80 | 1018.1 |
| 20260507183942 | 15 | 192 | 0.0 | 4.8 | 0.00 | 0.00 | 0.00 | 80 | 1018.0 |
| 20260507183444 | 15 | 214 | 1.6 | 4.8 | 0.00 | 0.00 | 0.00 | 79 | 1018.1 |
| 20260507183047 | 16 | 198 | 0.0 | 4.8 | 0.00 | 0.00 | 0.00 | 79 | 1017.9 |
| 20260507182952 | 16 | 240 | 1.6 | 3.2 | 0.00 | 0.00 | 0.00 | 78 | 1018.2 |
| 20260507182443 | 16 | 148 | 1.6 | 3.2 | 0.00 | 0.00 | 0.00 | 78 | 1018.1 |
| 20260507181943 | 16 | 230 | 0.0 | 1.6 | 0.00 | 0.00 | 0.00 | 78 | 1018.1 |
| 20260507181542 | 16 | 159 | 0.0 | 1.6 | 0.00 | 0.00 | 0.00 | 77 | 1018.0 |
| 20260507181452 | 16 | 158 | 0.0 | 1.6 | 0.00 | 0.00 | 0.00 | 77 | 1018.0 |
| 20260507180944 | 16 | 164 | 0.0 | 3.2 | 0.00 | 0.00 | 0.00 | 76 | 1018.0 |
| 20260507180455 | 17 | 255 | 1.6 | 3.2 | 0.00 | 0.00 | 0.00 | 75 | 1017.9 |
| 20260507180049 | 17 | 258 | 0.0 | 3.2 | 0.00 | 0.00 | 0.00 | 75 | 1017.7 |
| 20260507180004 | 17 | 258 | 1.6 | 3.2 | 0.00 | 0.00 | 0.00 | 75 | 1017.8 |
| 20260507175442 | 17 | 257 | 0.0 | 3.2 | 0.00 | 0.00 | 0.00 | 74 | 1017.7 |
| 20260507174955 | 17 | 246 | 0.0 | 3.2 | 0.00 | 0.00 | 0.00 | 74 | 1017.8 |
| 20260507174543 | 17 | 246 | 0.0 | 3.2 | 0.00 | 0.00 | 0.00 | 74 | 1017.6 |
| 20260507174453 | 17 | 245 | 0.0 | 3.2 | 0.00 | 0.00 | 0.00 | 75 | 1017.7 |
| 20260507173944 | 17 | 158 | 0.0 | 0.0 | 0.00 | 0.00 | 0.00 | 74 | 1017.6 |
| 20260507173444 | 17 | 142 | 0.0 | 0.0 | 0.00 | 0.00 | 0.00 | 73 | 1017.6 |
| 20260507173046 | 18 | 192 | 0.0 | 0.0 | 0.00 | 0.00 | 0.00 | 73 | 1017.4 |
| 20260507172951 | 18 | 192 | 0.0 | 0.0 | 0.00 | 0.00 | 0.00 | 73 | 1017.6 |
| 20260507172443 | 18 | 193 | 0.0 | 1.6 | 0.00 | 0.00 | 0.00 | 72 | 1017.7 |
| 20260507171942 | 18 | 126 | 0.0 | 4.8 | 0.00 | 0.00 | 0.00 | 70 | 1017.5 |
| 20260507171544 | 18 | 55 | 0.0 | 4.8 | 0.00 | 0.00 | 0.00 | 71 | 1017.2 |
| 20260507171451 | 18 | 56 | 0.0 | 4.8 | 0.00 | 0.00 | 0.00 | 71 | 1017.4 |
| 20260507170955 | 18 | 53 | 0.0 | 3.2 | 0.00 | 0.00 | 0.00 | 73 | 1017.2 |
| 20260507170444 | 18 | 117 | 0.0 | 0.0 | 0.00 | 0.00 | 0.00 | 73 | 1017.6 |
| 20260507170043 | 18 | 191 | 0.0 | 0.0 | 0.00 | 0.00 | 0.00 | 72 | 1017.8 |
| 20260507165953 | 18 | 205 | 0.0 | 0.0 | 0.00 | 0.00 | 0.00 | 73 | 1017.9 |
| 20260507165444 | 18 | 205 | 0.0 | 0.0 | 0.00 | 0.00 | 0.00 | 74 | 1018.0 |
| 20260507164944 | 18 | 205 | 0.0 | 0.0 | 0.00 | 0.00 | 0.00 | 74 | 1018.1 |
| 20260507164543 | 19 | 205 | 0.0 | 0.0 | 0.00 | 0.00 | 0.00 | 72 | 1018.0 |
| 20260507164453 | 19 | 205 | 0.0 | 0.0 | 0.00 | 0.00 | 0.00 | 73 | 1018.1 |
| 20260507163954 | 19 | 206 | 0.0 | 0.0 | 0.00 | 0.00 | 0.00 | 71 | 1018.1 |
| 20260507163443 | 19 | 206 | 0.0 | 0.0 | 0.00 | 0.00 | 0.00 | 70 | 1018.1 |
| 20260507163044 | 19 | 150 | 0.0 | 0.0 | 0.00 | 0.00 | 0.00 | 69 | 1017.9 |
| 20260507162952 | 19 | 150 | 0.0 | 0.0 | 0.00 | 0.00 | 0.00 | 69 | 1018.0 |
| 20260507162443 | 19 | 150 | 0.0 | 0.0 | 0.00 | 0.00 | 0.00 | 69 | 1017.9 |
| 20260507161943 | 19 | 150 | 0.0 | 0.0 | 0.00 | 0.00 | 0.00 | 68 | 1017.9 |
| 20260507161543 | 20 | 193 | 0.0 | 0.0 | 0.00 | 0.00 | 0.00 | 68 | 1017.8 |
| 20260507161503 | 20 | 193 | 0.0 | 0.0 | 0.00 | 0.00 | 0.00 | 68 | 1018.0 |
| 20260507160943 | 19 | 193 | 0.0 | 0.0 | 0.00 | 0.00 | 0.00 | 68 | 1018.0 |
| 20260507160455 | 19 | 193 | 0.0 | 0.0 | 0.00 | 0.00 | 0.00 | 67 | 1017.9 |
| 20260507160044 | 19 | 193 | 0.0 | 0.0 | 0.00 | 0.00 | 0.00 | 68 | 1017.9 |
| 20260507160003 | 19 | 194 | 0.0 | 0.0 | 0.00 | 0.00 | 0.00 | 67 | 1018.0 |
| 20260507155443 | 19 | 193 | 0.0 | 0.0 | 0.00 | 0.00 | 0.00 | 69 | 1018.2 |
| 20260507154943 | 19 | 179 | 0.0 | 0.0 | 0.00 | 0.00 | 0.00 | 70 | 1018.1 |
| 20260507154543 | 19 | 159 | 0.0 | 0.0 | 0.00 | 0.00 | 0.00 | 69 | 1017.8 |
| 20260507154453 | 19 | 163 | 0.0 | 0.0 | 0.00 | 0.00 | 0.00 | 70 | 1018.0 |
| 20260507153954 | 19 | 221 | 0.0 | 0.0 | 0.00 | 0.00 | 0.00 | 68 | 1017.9 |
| 20260507153443 | 19 | 235 | 0.0 | 1.6 | 0.00 | 0.00 | 0.00 | 66 | 1018.2 |
| 20260507153050 | 19 | 238 | 0.0 | 1.6 | 0.00 | 0.00 | 0.00 | 66 | 1018.2 |
| 20260507152952 | 19 | 237 | 0.0 | 1.6 | 0.00 | 0.00 | 0.00 | 66 | 1018.3 |
| 20260507152443 | 19 | 240 | 0.0 | 3.2 | 0.00 | 0.00 | 0.00 | 67 | 1018.3 |
| 20260507151943 | 19 | 252 | 1.6 | 3.2 | 0.00 | 0.00 | 0.00 | 65 | 1018.2 |
| 20260507151543 | 19 | 257 | 0.0 | 4.8 | 0.00 | 0.00 | 0.00 | 65 | 1018.1 |
| 20260507151452 | 19 | 257 | 1.6 | 4.8 | 0.00 | 0.00 | 0.00 | 65 | 1018.3 |
| 20260507150943 | 19 | 266 | 1.6 | 4.8 | 0.00 | 0.00 | 0.00 | 66 | 1018.3 |
| 20260507150445 | 19 | 272 | 1.6 | 4.8 | 0.00 | 0.00 | 0.00 | 66 | 1018.2 |
| 20260507150044 | 19 | 266 | 0.0 | 4.8 | 0.00 | 0.00 | 0.00 | 67 | 1018.1 |
| 20260507145953 | 19 | 300 | 0.0 | 4.8 | 0.00 | 0.00 | 0.00 | 67 | 1018.1 |
| 20260507145443 | 19 | 259 | 1.6 | 8.0 | 0.00 | 0.00 | 0.00 | 67 | 1018.2 |
| 20260507144955 | 19 | 314 | 1.6 | 8.0 | 0.00 | 0.00 | 0.00 | 68 | 1018.2 |
| 20260507144548 | 20 | 292 | 1.6 | 8.0 | 0.00 | 0.00 | 0.00 | 67 | 1018.1 |
| 20260507144453 | 20 | 288 | 1.6 | 8.0 | 0.00 | 0.00 | 0.00 | 68 | 1018.2 |
| 20260507143944 | 20 | 278 | 3.2 | 9.7 | 0.00 | 0.00 | 0.00 | 67 | 1018.3 |
| 20260507143445 | 20 | 317 | 4.8 | 9.7 | 0.00 | 0.00 | 0.00 | 66 | 1018.1 |
| 20260507143043 | 20 | 291 | 3.2 | 12.9 | 0.00 | 0.00 | 0.00 | 66 | 1018.0 |
| 20260507142954 | 20 | 287 | 4.8 | 12.9 | 0.00 | 0.00 | 0.00 | 66 | 1018.1 |
| 20260507142444 | 20 | 292 | 6.4 | 12.9 | 0.00 | 0.00 | 0.00 | 64 | 1018.2 |
| 20260507141944 | 20 | 330 | 4.8 | 11.3 | 0.00 | 0.00 | 0.00 | 66 | 1018.2 |
| 20260507141547 | 20 | 307 | 3.2 | 9.7 | 0.00 | 0.00 | 0.00 | 67 | 1018.0 |
| 20260507141454 | 20 | 290 | 4.8 | 9.7 | 0.00 | 0.00 | 0.00 | 67 | 1018.0 |
| 20260507140943 | 21 | 288 | 4.8 | 11.3 | 0.00 | 0.00 | 0.00 | 67 | 1018.0 |
| 20260507140455 | 21 | 285 | 4.8 | 9.7 | 0.00 | 0.00 | 0.00 | 67 | 1018.0 |
| 20260507140104 | 21 | 285 | 1.6 | 12.9 | 0.00 | 0.00 | 0.00 | 65 | 1017.8 |
| 20260507135953 | 21 | 307 | 3.2 | 12.9 | 0.00 | 0.00 | 0.00 | 65 | 1018.0 |
| 20260507135444 | 21 | 338 | 4.8 | 12.9 | 0.00 | 0.00 | 0.00 | 63 | 1017.8 |
| 20260507134944 | 22 | 314 | 1.6 | 6.4 | 0.00 | 0.00 | 0.00 | 63 | 1018.0 |
| 20260507134544 | 21 | 34 | 1.6 | 6.4 | 0.00 | 0.00 | 0.00 | 64 | 1017.7 |
| 20260507134453 | 21 | 340 | 3.2 | 6.4 | 0.00 | 0.00 | 0.00 | 64 | 1017.8 |
| 20260507133944 | 21 | 341 | 1.6 | 4.8 | 0.00 | 0.00 | 0.00 | 63 | 1017.8 |
| 20260507133444 | 21 | 308 | 1.6 | 4.8 | 0.00 | 0.00 | 0.00 | 62 | 1017.8 |
| 20260507133047 | 21 | 25 | 0.0 | 3.2 | 0.00 | 0.00 | 0.00 | 64 | 1017.7 |
| 20260507132953 | 21 | 17 | 0.0 | 3.2 | 0.00 | 0.00 | 0.00 | 64 | 1017.9 |
| 20260507132444 | 20 | 62 | 0.0 | 3.2 | 0.00 | 0.00 | 0.00 | 65 | 1017.7 |
| 20260507131944 | 20 | 65 | 0.0 | 3.2 | 0.00 | 0.00 | 0.00 | 65 | 1017.9 |
| 20260507131547 | 20 | 66 | 0.0 | 3.2 | 0.00 | 0.00 | 0.00 | 65 | 1017.9 |
| 20260507131504 | 20 | 48 | 0.0 | 3.2 | 0.00 | 0.00 | 0.00 | 65 | 1018.0 |
| 20260507130944 | 20 | 103 | 0.0 | 1.6 | 0.00 | 0.00 | 0.00 | 66 | 1018.2 |
| 20260507130455 | 20 | 136 | 0.0 | 3.2 | 0.00 | 0.00 | 0.00 | 66 | 1018.3 |
| 20260507130051 | 20 | 317 | 0.0 | 3.2 | 0.00 | 0.00 | 0.00 | 67 | 1018.2 |
| 20260507125953 | 20 | 11 | 1.6 | 3.2 | 0.00 | 0.00 | 0.00 | 67 | 1018.3 |
| 20260507125444 | 20 | 6 | 1.6 | 8.0 | 0.00 | 0.00 | 0.00 | 68 | 1018.2 |
| 20260507124944 | 20 | 50 | 1.6 | 8.0 | 0.00 | 0.00 | 0.00 | 69 | 1018.0 |
| 20260507124552 | 20 | 122 | 1.6 | 6.4 | 0.00 | 0.00 | 0.00 | 67 | 1017.7 |
| 20260507124453 | 20 | 62 | 1.6 | 6.4 | 0.00 | 0.00 | 0.00 | 67 | 1017.9 |
| 20260507123944 | 20 | 10 | 3.2 | 6.4 | 0.00 | 0.00 | 0.00 | 67 | 1018.2 |
| 20260507123444 | 20 | 326 | 3.2 | 6.4 | 0.00 | 0.00 | 0.00 | 66 | 1018.6 |
| 20260507123055 | 20 | 359 | 1.6 | 6.4 | 0.00 | 0.00 | 0.00 | 67 | 1018.7 |
| 20260507122953 | 20 | 350 | 3.2 | 6.4 | 0.00 | 0.00 | 0.00 | 67 | 1018.7 |
| 20260507122444 | 20 | 46 | 1.6 | 6.4 | 0.00 | 0.00 | 0.00 | 68 | 1018.9 |
| 20260507121944 | 20 | 340 | 1.6 | 4.8 | 0.00 | 0.00 | 0.00 | 68 | 1019.1 |
| 20260507121548 | 19 | 286 | 0.0 | 3.2 | 0.00 | 0.00 | 0.00 | 71 | 1019.2 |
| 20260507121455 | 19 | 332 | 0.0 | 1.6 | 0.00 | 0.00 | 0.00 | 70 | 1019.3 |
| 20260507120944 | 19 | 11 | 0.0 | 0.0 | 0.00 | 0.00 | 0.00 | 73 | 1019.5 |
| 20260507120444 | 18 | 11 | 0.0 | 1.6 | 0.00 | 0.00 | 0.00 | 71 | 1019.5 |
| 20260507120054 | 18 | 42 | 0.0 | 3.2 | 0.00 | 0.00 | 0.00 | 73 | 1019.4 |
| 20260507115953 | 18 | 42 | 0.0 | 3.2 | 0.00 | 0.00 | 0.00 | 73 | 1019.6 |
| 20260507115444 | 18 | 285 | 1.6 | 3.2 | 0.00 | 0.00 | 0.00 | 73 | 1019.7 |
| 20260507114945 | 18 | 330 | 0.0 | 3.2 | 0.00 | 0.00 | 0.00 | 76 | 1019.7 |
| 20260507114547 | 18 | 322 | 0.0 | 4.8 | 0.00 | 0.00 | 0.00 | 75 | 1019.5 |
| 20260507114454 | 18 | 359 | 1.6 | 4.8 | 0.00 | 0.00 | 0.00 | 75 | 1019.7 |
| 20260507113944 | 18 | 339 | 1.6 | 4.8 | 0.00 | 0.00 | 0.00 | 76 | 1019.7 |
| 20260507113444 | 18 | 34 | 1.6 | 4.8 | 0.00 | 0.00 | 0.00 | 75 | 1019.9 |
| 20260507113044 | 18 | 340 | 0.0 | 4.8 | 0.00 | 0.00 | 0.00 | 75 | 1019.8 |
| 20260507112954 | 18 | 311 | 0.0 | 4.8 | 0.00 | 0.00 | 0.00 | 75 | 1019.9 |
| 20260507112445 | 18 | 25 | 0.0 | 3.2 | 0.00 | 0.00 | 0.00 | 74 | 1020.0 |
| 20260507111955 | 18 | 307 | 1.6 | 4.8 | 0.00 | 0.00 | 0.00 | 72 | 1020.0 |
| 20260507111547 | 18 | 313 | 1.6 | 4.8 | 0.00 | 0.00 | 0.00 | 71 | 1020.0 |
| 20260507111453 | 18 | 283 | 1.6 | 4.8 | 0.00 | 0.00 | 0.00 | 71 | 1020.1 |
| 20260507110944 | 18 | 310 | 1.6 | 4.8 | 0.00 | 0.00 | 0.00 | 71 | 1020.1 |
| 20260507110446 | 18 | 319 | 1.6 | 4.8 | 0.00 | 0.00 | 0.00 | 70 | 1020.1 |
| 20260507110045 | 18 | 293 | 0.0 | 3.2 | 0.00 | 0.00 | 0.00 | 69 | 1019.9 |
| 20260507105954 | 18 | 303 | 1.6 | 4.8 | 0.00 | 0.00 | 0.00 | 69 | 1020.0 |
| 20260507105444 | 18 | 354 | 0.0 | 4.8 | 0.00 | 0.00 | 0.00 | 68 | 1020.0 |
| 20260507104944 | 19 | 330 | 1.6 | 4.8 | 0.00 | 0.00 | 0.00 | 67 | 1019.9 |
| 20260507104545 | 19 | 307 | 0.0 | 4.8 | 0.00 | 0.00 | 0.00 | 67 | 1019.8 |
| 20260507104454 | 19 | 307 | 0.0 | 8.0 | 0.00 | 0.00 | 0.00 | 66 | 1020.0 |
| 20260507103945 | 19 | 356 | 1.6 | 8.0 | 0.00 | 0.00 | 0.00 | 64 | 1020.0 |
| 20260507103445 | 19 | 285 | 3.2 | 6.4 | 0.00 | 0.00 | 0.00 | 62 | 1020.0 |
| 20260507103044 | 19 | 3 | 1.6 | 4.8 | 0.00 | 0.00 | 0.00 | 62 | 1019.7 |
| 20260507103005 | 19 | 288 | 1.6 | 6.4 | 0.00 | 0.00 | 0.00 | 61 | 1019.9 |
| 20260507102445 | 19 | 238 | 1.6 | 8.0 | 0.00 | 0.00 | 0.00 | 62 | 1020.0 |
| 20260507101956 | 19 | 227 | 3.2 | 8.0 | 0.00 | 0.00 | 0.00 | 62 | 1020.0 |
| 20260507101548 | 19 | 319 | 3.2 | 9.7 | 0.00 | 0.00 | 0.00 | 62 | 1019.8 |
| 20260507101454 | 19 | 302 | 3.2 | 9.7 | 0.00 | 0.00 | 0.00 | 62 | 1019.9 |
| 20260507100945 | 19 | 300 | 3.2 | 9.7 | 0.00 | 0.00 | 0.00 | 64 | 1020.0 |
| 20260507100446 | 20 | 338 | 4.8 | 8.0 | 0.00 | 0.00 | 0.00 | 63 | 1020.1 |
| 20260507100045 | 20 | 231 | 3.2 | 8.0 | 0.00 | 0.00 | 0.00 | 63 | 1019.8 |
| 20260507095955 | 20 | 295 | 4.8 | 8.0 | 0.00 | 0.00 | 0.00 | 63 | 1020.0 |
| 20260507095445 | 20 | 315 | 3.2 | 8.0 | 0.00 | 0.00 | 0.00 | 61 | 1019.9 |
| 20260507094946 | 20 | 307 | 4.8 | 8.0 | 0.00 | 0.00 | 0.00 | 60 | 1019.8 |
| 20260507094547 | 20 | 285 | 1.6 | 11.3 | 0.00 | 0.00 | 0.00 | 60 | 1019.5 |
| 20260507094455 | 20 | 251 | 1.6 | 11.3 | 0.00 | 0.00 | 0.00 | 60 | 1019.7 |
| 20260507093945 | 20 | 285 | 3.2 | 9.7 | 0.00 | 0.00 | 0.00 | 62 | 1019.6 |
| 20260507093446 | 20 | 299 | 4.8 | 9.7 | 0.00 | 0.00 | 0.00 | 60 | 1019.5 |
| 20260507093045 | 20 | 293 | 1.6 | 9.7 | 0.00 | 0.00 | 0.00 | 63 | 1019.2 |
| 20260507092955 | 20 | 304 | 1.6 | 9.7 | 0.00 | 0.00 | 0.00 | 62 | 1019.4 |
| 20260507092457 | 20 | 293 | 4.8 | 9.7 | 0.00 | 0.00 | 0.00 | 61 | 1019.3 |
| 20260507091946 | 20 | 279 | 6.4 | 9.7 | 0.00 | 0.00 | 0.00 | 61 | 1019.1 |
| 20260507091547 | 20 | 316 | 4.8 | 9.7 | 0.00 | 0.00 | 0.00 | 61 | 1018.9 |
| 20260507091454 | 20 | 15 | 6.4 | 9.7 | 0.00 | 0.00 | 0.00 | 62 | 1018.9 |
| 20260507090945 | 20 | 330 | 4.8 | 12.9 | 0.00 | 0.00 | 0.00 | 62 | 1018.9 |
| 20260507090445 | 20 | 321 | 4.8 | 12.9 | 0.00 | 0.00 | 0.00 | 60 | 1018.8 |
| 20260507090045 | 20 | 347 | 4.8 | 9.7 | 0.00 | 0.00 | 0.00 | 59 | 1018.6 |
| 20260507085954 | 20 | 307 | 6.4 | 9.7 | 0.00 | 0.00 | 0.00 | 59 | 1018.8 |
| 20260507085446 | 20 | 347 | 3.2 | 8.0 | 0.00 | 0.00 | 0.00 | 59 | 1018.7 |
| 20260507084945 | 20 | 328 | 3.2 | 8.0 | 0.00 | 0.00 | 0.00 | 57 | 1018.6 |
| 20260507084551 | 20 | 298 | 1.6 | 12.9 | 0.00 | 0.00 | 0.00 | 57 | 1018.4 |
| 20260507084455 | 20 | 302 | 3.2 | 12.9 | 0.00 | 0.00 | 0.00 | 59 | 1018.7 |
| 20260507083946 | 20 | 14 | 4.8 | 9.7 | 0.00 | 0.00 | 0.00 | 57 | 1018.6 |
| 20260507083445 | 20 | 319 | 3.2 | 9.7 | 0.00 | 0.00 | 0.00 | 58 | 1018.5 |
| 20260507083050 | 20 | 3 | 3.2 | 8.0 | 0.00 | 0.00 | 0.00 | 59 | 1018.4 |
| 20260507083005 | 20 | 314 | 4.8 | 8.0 | 0.00 | 0.00 | 0.00 | 59 | 1018.5 |
| 20260507082458 | 20 | 37 | 0.0 | 6.4 | 0.00 | 0.00 | 0.00 | 59 | 1018.5 |
| 20260507081946 | 20 | 316 | 1.6 | 6.4 | 0.00 | 0.00 | 0.00 | 59 | 1018.4 |
| 20260507081545 | 21 | 293 | 3.2 | 6.4 | 0.00 | 0.00 | 0.00 | 58 | 1018.3 |
| 20260507081455 | 21 | 317 | 4.8 | 6.4 | 0.00 | 0.00 | 0.00 | 58 | 1018.4 |
| 20260507080946 | 21 | 297 | 1.6 | 6.4 | 0.00 | 0.00 | 0.00 | 60 | 1018.4 |
| 20260507080446 | 20 | 282 | 3.2 | 6.4 | 0.00 | 0.00 | 0.00 | 58 | 1018.4 |
| 20260507080111 | 20 | 268 | 1.6 | 6.4 | 0.00 | 0.00 | 0.00 | 60 | 1018.2 |
| 20260507075956 | 20 | 255 | 1.6 | 6.4 | 0.00 | 0.00 | 0.00 | 60 | 1018.4 |
| 20260507075456 | 20 | 282 | 3.2 | 6.4 | 0.00 | 0.00 | 0.00 | 58 | 1018.3 |
| 20260507074945 | 20 | 292 | 3.2 | 9.7 | 0.00 | 0.00 | 0.00 | 60 | 1018.2 |
| 20260507074547 | 20 | 255 | 1.6 | 9.7 | 0.00 | 0.00 | 0.00 | 60 | 1018.0 |
| 20260507074455 | 20 | 20 | 3.2 | 9.7 | 0.00 | 0.00 | 0.00 | 60 | 1018.1 |
| 20260507073946 | 20 | 317 | 3.2 | 6.4 | 0.00 | 0.00 | 0.00 | 60 | 1018.1 |
| 20260507073446 | 20 | 268 | 3.2 | 8.0 | 0.00 | 0.00 | 0.00 | 60 | 1018.0 |
| 20260507073053 | 20 | 315 | 3.2 | 8.0 | 0.00 | 0.00 | 0.00 | 60 | 1017.8 |
| 20260507072956 | 20 | 302 | 3.2 | 8.0 | 0.00 | 0.00 | 0.00 | 59 | 1018.0 |
| 20260507072446 | 20 | 257 | 1.6 | 6.4 | 0.00 | 0.00 | 0.00 | 61 | 1017.9 |
| 20260507071957 | 20 | 285 | 1.6 | 6.4 | 0.00 | 0.00 | 0.00 | 61 | 1017.9 |
| 20260507071559 | 20 | 297 | 1.6 | 6.4 | 0.00 | 0.00 | 0.00 | 62 | 1017.6 |
| 20260507071506 | 19 | 23 | 1.6 | 6.4 | 0.00 | 0.00 | 0.00 | 62 | 1017.8 |
| 20260507070946 | 19 | 316 | 1.6 | 8.0 | 0.00 | 0.00 | 0.00 | 64 | 1017.9 |
| 20260507070446 | 19 | 73 | 3.2 | 8.0 | 0.00 | 0.00 | 0.00 | 66 | 1017.9 |
| 20260507070046 | 19 | 304 | 1.6 | 8.0 | 0.00 | 0.00 | 0.00 | 67 | 1017.8 |
| 20260507065955 | 19 | 304 | 3.2 | 8.0 | 0.00 | 0.00 | 0.00 | 67 | 1018.0 |
| 20260507065446 | 19 | 306 | 4.8 | 8.0 | 0.00 | 0.00 | 0.00 | 67 | 1018.0 |
| 20260507064946 | 19 | 319 | 1.6 | 6.4 | 0.00 | 0.00 | 0.00 | 65 | 1018.0 |
| 20260507064551 | 20 | 286 | 1.6 | 6.4 | 0.00 | 0.00 | 0.00 | 63 | 1017.9 |
| 20260507064506 | 20 | 285 | 3.2 | 6.4 | 0.00 | 0.00 | 0.00 | 63 | 1018.0 |
| 20260507063946 | 20 | 356 | 1.6 | 4.8 | 0.00 | 0.00 | 0.00 | 64 | 1018.1 |
| 20260507063446 | 20 | 304 | 3.2 | 8.0 | 0.00 | 0.00 | 0.00 | 64 | 1018.1 |
| 20260507063048 | 20 | 328 | 1.6 | 8.0 | 0.00 | 0.00 | 0.00 | 63 | 1017.9 |
| 20260507062955 | 20 | 329 | 3.2 | 8.0 | 0.00 | 0.00 | 0.00 | 63 | 1018.1 |
| 20260507062446 | 20 | 240 | 1.6 | 4.8 | 0.00 | 0.00 | 0.00 | 61 | 1018.0 |
| 20260507061946 | 20 | 239 | 1.6 | 4.8 | 0.00 | 0.00 | 0.00 | 62 | 1018.0 |
| 20260507061546 | 20 | 262 | 1.6 | 4.8 | 0.00 | 0.00 | 0.00 | 62 | 1017.7 |
| 20260507061506 | 20 | 286 | 3.2 | 4.8 | 0.00 | 0.00 | 0.00 | 61 | 1017.9 |
| 20260507060946 | 20 | 60 | 0.0 | 3.2 | 0.00 | 0.00 | 0.00 | 64 | 1017.8 |